Wetbulb
36.65 35.87 35.17 35.16 35.07 35.86 35.61 35.66 35.48 35.95 36.61 36.59 36.16 35.94 34.85 35.17 35.01 35.16 35.43 35.54 35.75 36.09 36.31 36.16 35.73 36.35 35.27 35.24 35.38 35.89 35.77 35.85 36.39 36.84 38.06 40.63 41.99 40.07 39.35 40.11 38.93 38.68 38.58
35.10 33.81 33.39 33.64 33.58 33.70 34.49 34.71 34.97 35.08 36.22 36.94 37.17 36.43 35.62 35.10 34.54 34.24 33.92 34.48 34.39 34.55 34.59 34.75 34.32 34.42 34.58 34.29 34.20 34.05 33.56 35.36 35.39 32.56 35.46 33.19 37.09 38.83 37.95 38.68 38.14 37.28 38.15
33.47 32.10 31.51 31.84 32.82 32.56 33.08 33.58 33.90 34.28 34.75 35.42 35.10 34.75 34.40 34.18 33.51 33.45 32.75 32.48 33.31 33.30 33.31 33.34 33.57 33.40 33.61 32.61 32.76 32.58 32.40 31.30 34.41 34.48 32.27 30.09 30.09 30.85 37.24 36.81 37.24 36.68 36.60
33.87 31.59 30.24 30.34 31.41 32.11 32.70 32.32 32.53 32.64 33.43 34.37 34.08 33.49 33.21 31.90 31.96 31.75 32.05 31.43 32.11 31.90 32.03 32.09 32.34 31.98 32.36 31.66 31.81 32.42 31.91 31.75 30.69 33.45 33.82 33.51 31.91 28.32 28.13 34.59 35.46 36.13 35.24
33.13 30.91 30.31 30.65 31.44 31.70 31.11 31.58 31.75 31.60 32.26 33.14 33.77 33.34 32.71 31.93 32.08 31.81 31.40 31.43 31.54 31.73 31.37 31.49 31.62 31.10 31.34 31.16 30.81 30.79 30.80 31.32 30.39 30.53 30.68 31.12 31.84 32.06 29.02 27.13 30.40 33.40 34.71
33.08 31.88 31.67 31.51 31.47 31.37 31.15 31.06 30.65 30.48 31.51 32.05 32.60 32.77 31.86 31.31 30.84 30.86 30.99 30.93 31.29 31.24 30.82 30.37 30.96 30.92 30.36 29.97 30.08 30.32 30.40 30.10 30.32 30.71 30.52 29.54 28.41 28.54 28.09 26.93 27.93 28.27 31.26
32.82 31.51 30.54 30.07 30.27 29.94 30.53 30.75 30.32 29.16 30.42 30.53 30.53 30.74 30.64 30.54 30.13 29.97 29.79 29.25 30.04 30.34 30.09 29.58 29.70 29.45 29.33 29.11 29.28 29.22 29.53 29.83 29.20 29.49 29.53 30.15 29.25 29.65 28.73 27.32 26.80 26.81 29.87
32.59 31.72 31.04 30.26 29.67 29.65 30.04 30.06 29.36 28.25 29.12 29.18 28.49 29.02 29.16 29.19 29.04 28.58 28.88 29.02 28.95 29.10 28.98 28.77 28.47 28.49 28.42 28.38 28.47 28.45 28.82 29.28 28.92 28.51 28.53 28.58 28.97 29.60 29.01 27.39 26.12 23.86 26.04
31.31 31.41 30.73 29.67 29.11 28.91 28.95 28.80 28.23 27.20 27.36 27.36 27.27 27.27 27.49 27.33 27.31 27.16 27.83 28.27 28.08 28.01 27.21 27.23 26.95 27.34 27.41 27.37 27.28 26.97 27.14 27.84 28.03 27.96 28.24 28.01 28.80 29.39 29.33 29.07 28.24 25.22 20.78
28.47 29.17 28.92 28.88 28.88 28.41 28.40 28.17 27.64 26.31 26.26 26.34 26.68 26.38 26.00 25.91 26.29 26.52 26.13 26.15 26.44 26.16 25.77 25.62 25.74 25.78 25.91 26.07 26.11 25.81 26.62 26.23 26.63 26.95 26.31 26.62 27.70 28.09 28.81 28.68 28.28 27.57 24.90
26.06 27.41 27.44 27.81 27.65 27.43 26.55 26.29 26.12 25.47 24.88 25.37 25.37 24.97 25.05 24.83 25.11 24.99 25.35 25.21 25.22 24.83 24.35 24.25 24.04 23.95 23.99 24.69 24.47 24.60 24.72 24.12 24.39 25.21 25.16 25.30 26.28 26.06 26.60 27.34 27.29 26.58 26.28
24.60 25.21 24.96 24.62 23.87 24.16 24.14 23.90 24.25 24.27 24.97 24.94 24.48 24.03 24.38 24.18 23.85 23.97 24.30 24.42 23.50 24.03 23.53 23.30 22.86 22.90 23.13 23.59 23.19 22.75 23.35 22.84 22.52 23.26 23.62 23.73 25.39 24.76 25.62 25.72 25.24 25.65 26.38
20.93 21.62 21.52 20.75 20.99 21.68 22.39 22.92 23.27 23.34 23.90 23.47 22.82 22.85 22.81 22.91 22.83 23.03 23.16 23.06 22.59 22.44 22.66 22.48 21.76 21.81 22.12 22.17 22.50 22.35 22.20 22.22 22.32 22.60 22.66 22.92 23.50 23.04 24.15 24.51 24.48 25.37 26.34
20.14 20.22 20.13 19.77 19.89 19.69 19.32 19.83 21.25 22.47 21.97 21.32 20.68 20.32 20.91 21.57 21.91 22.34 22.12 21.85 21.88 21.33 21.42 21.59 21.37 21.31 21.36 21.50 21.42 21.52 21.28 21.46 21.95 22.64 22.83 22.91 22.85 22.66 23.08 23.78 23.92 24.85 24.19
20.04 20.42 20.22 20.28 19.64 19.15 19.07 18.89 19.18 20.22 20.88 18.91 18.19 18.41 19.64 20.30 20.61 20.47 20.72 21.02 20.95 20.97 21.07 20.58 20.47 20.58 20.66 21.14 20.83 21.19 20.91 20.87 21.32 22.64 23.36 24.10 25.14 26.59 26.59 24.93 23.81 23.89 23.08
21.16 20.93 20.61 20.06 19.68 19.59 19.28 19.24 18.75 18.27 17.60 16.71 16.34 17.02 17.53 18.05 18.41 18.93 19.31 19.70 19.77 19.96 20.10 19.62 19.51 19.16 20.31 22.62 23.47 22.97 21.18 21.17 20.99 20.96 22.13 23.56 25.08 25.79 27.92 28.76 29.34 28.39 25.35
20.12 19.42 19.45 19.35 19.41 19.29 19.82 18.59 18.58 18.41 15.49 13.91 13.82 14.36 14.97 15.03 15.71 16.86 17.34 17.50 17.82 18.73 18.51 18.88 19.15 18.85 19.42 22.50 23.43 23.91 21.79 21.07 20.94 20.89 21.27 22.32 24.17 25.11 24.80 26.59 28.17 28.36 29.14
17.33 17.42 17.66 17.44 17.92 18.17 17.06 16.88 16.75 14.90 12.93 11.62 11.14 11.58 10.74 11.27 13.26 13.96 14.33 15.61 16.82 16.76 17.21 17.86 18.68 18.58 19.39 22.31 22.97 23.48 21.45 20.56 20.44 20.78 20.99 21.09 21.81 23.18 23.72 23.64 23.30 23.64 24.50
15.61 16.09 16.62 15.64 14.96 14.18 14.36 12.75 11.46 11.43 9.81 9.00 10.07 11.20 10.20 8.59 9.67 10.01 11.39 13.91 14.96 15.36 15.87 17.38 17.70 17.45 17.95 21.32 22.14 21.74 19.66 19.26 19.16 20.51 20.90 21.14 21.22 24.10 25.84 23.14 22.16 22.04 22.91
15.60 13.84 14.19 14.08 13.01 12.10 12.03 10.27 9.66 9.79 9.13 10.19 10.97 11.76 10.74 9.20 7.98 8.93 9.37 12.37 13.86 14.35 15.71 15.82 17.04 18.40 17.15 20.40 21.73 21.52 19.99 18.01 18.51 18.81 19.50 22.22 21.86 24.52 25.61 22.32 21.03 19.48 21.15
15.67 13.66 13.54 11.88 10.65 11.26 9.77 7.82 8.13 7.53 9.72 11.06 11.40 10.50 10.27 9.35 9.39 9.19 10.02 10.42 11.24 12.40 12.34 13.24 14.55 15.57 16.65 16.70 20.41 21.38 18.65 17.78 17.18 17.26 17.71 19.73 23.07 24.53 25.59 26.23 23.24 23.34 24.86
16.41 17.26 15.74 15.21 16.12 15.30 11.00 8.51 7.82 9.62 10.30 10.00 9.08 8.83 8.91 9.88 10.98 9.04 8.90 9.32 9.50 8.85 8.82 9.38 10.78 13.14 14.19 17.40 18.62 20.33 20.99 20.74 17.72 16.76 18.38 19.42 22.56 23.81 24.83 24.88 26.15 27.07 26.84
15.86 16.79 15.44 14.99 16.22 16.27 14.97 12.35 12.74 12.47 11.18 10.27 8.74 8.27 8.80 9.23 9.33 8.53 8.53 8.95 8.59 7.72 7.72 8.29 8.42 9.70 12.66 14.11 17.86 19.73 20.81 21.29 18.84 19.43 20.45 22.70 23.60 24.57 24.56 25.72 26.42 26.61 23.25
14.66 15.78 15.09 13.99 13.79 15.65 15.78 14.81 14.58 14.27 12.24 10.07 9.52 9.94 8.65 8.77 8.97 10.20 10.02 8.75 8.14 7.90 7.82 7.61 7.40 8.45 10.35 11.92 13.75 14.64 15.12 17.62 17.99 19.04 18.89 20.46 22.12 23.74 23.22 23.24 23.39 22.56 22.34
14.10 14.40 13.53 13.16 13.26 14.86 14.71 15.27 15.25 14.52 12.21 11.12 10.78 10.52 10.71 9.94 10.26 11.34 11.07 9.80 9.87 10.59 7.91 8.69 9.18 8.12 7.61 10.13 14.71 14.76 13.58 14.05 16.62 17.42 16.41 16.18 16.59 16.57 17.53 19.47 20.40 21.16 20.36
12.83 12.90 13.15 13.12 13.13 13.39 12.98 13.44 13.84 13.08 11.55 10.50 10.31 10.56 10.39 10.01 10.32 9.78 9.53 14.88 16.32 17.70 17.85 17.96 14.96 10.68 15.94 17.65 18.50 19.52 20.43 21.35 22.22 18.49 16.91 17.15 17.78 18.04 17.77 17.30 17.05 17.81 18.19
MSLP
1020.45 1021.71 1022.93 1023.91 1024.66 1025.15 1025.54 1025.95 1026.36 1026.70 1026.80 1027.03 1027.28 1027.69 1028.31 1028.98 1029.52 1029.95 1030.15 1030.30 1030.43 1030.44 1030.35 1030.44 1030.50 1030.38 1030.48 1030.50 1030.38 1030.07 1029.65 1029.54 1029.48 1028.39 1027.62 1026.82 1026.90 1027.14 1027.27 1027.41 1027.56 1027.82 1027.79
1019.99 1021.54 1022.73 1023.73 1024.53 1025.16 1025.64 1026.05 1026.46 1026.89 1026.89 1027.00 1027.26 1027.75 1028.46 1029.15 1029.85 1030.42 1030.67 1030.74 1030.88 1030.92 1030.89 1030.95 1031.04 1031.06 1030.88 1030.94 1030.91 1030.76 1030.45 1029.94 1030.09 1029.59 1028.34 1027.55 1027.10 1027.29 1027.42 1027.63 1027.76 1027.98 1028.09
1019.32 1021.15 1022.51 1023.46 1024.26 1024.97 1025.64 1026.09 1026.61 1027.00 1027.37 1027.70 1028.19 1028.51 1029.14 1029.51 1029.76 1030.22 1030.75 1031.15 1031.18 1031.31 1031.38 1031.49 1031.48 1031.53 1031.48 1031.49 1031.54 1031.56 1031.29 1030.83 1030.41 1030.42 1030.02 1028.95 1028.48 1028.63 1027.63 1027.64 1027.80 1027.91 1028.17
1019.18 1020.99 1022.41 1023.43 1024.12 1024.90 1025.85 1026.51 1026.93 1027.32 1027.74 1027.89 1028.05 1028.34 1028.45 1028.97 1029.80 1030.36 1030.88 1031.35 1031.48 1031.67 1031.80 1031.87 1031.96 1032.00 1032.04 1032.03 1032.00 1031.89 1031.85 1031.59 1031.10 1030.77 1030.69 1030.69 1030.55 1029.87 1028.69 1028.03 1028.30 1028.21 1028.22
1018.93 1020.71 1022.17 1023.25 1024.15 1024.98 1025.91 1026.57 1027.04 1027.45 1027.81 1027.95 1028.14 1028.41 1028.66 1029.43 1030.01 1030.43 1030.84 1031.18 1031.58 1031.86 1032.07 1032.10 1032.15 1032.21 1032.26 1032.33 1032.41 1032.30 1032.15 1031.93 1031.82 1031.52 1031.16 1030.85 1030.48 1030.26 1029.92 1028.92 1028.60 1028.62 1028.47
1018.80 1020.52 1021.95 1023.09 1023.89 1025.09 1025.91 1026.57 1027.11 1027.58 1027.96 1028.21 1028.46 1028.60 1029.01 1029.47 1029.90 1030.29 1030.55 1030.93 1031.23 1031.62 1032.05 1032.26 1032.25 1032.29 1032.41 1032.51 1032.52 1032.42 1032.17 1032.11 1031.95 1031.71 1031.45 1031.13 1030.83 1030.41 1030.23 1029.70 1029.40 1029.06 1028.68
1018.73 1020.25 1021.64 1022.80 1023.79 1024.87 1025.62 1026.31 1026.95 1027.57 1028.07 1028.48 1028.81 1029.11 1029.41 1029.67 1029.91 1030.26 1030.58 1030.88 1031.08 1031.37 1031.76 1032.19 1032.23 1032.37 1032.57 1032.66 1032.55 1032.42 1032.24 1032.01 1031.86 1031.60 1031.37 1031.17 1031.05 1030.89 1030.66 1030.36 1029.73 1029.14 1028.73
1018.98 1020.27 1021.56 1022.84 1023.92 1024.91 1025.69 1026.35 1027.05 1027.74 1028.27 1028.76 1029.25 1029.61 1029.84 1030.04 1030.33 1030.68 1030.90 1031.05 1031.23 1031.50 1031.90 1032.05 1032.27 1032.37 1032.43 1032.44 1032.42 1032.22 1031.98 1031.88 1031.70 1031.41 1031.23 1031.04 1030.85 1030.75 1030.59 1030.38 1030.07 1029.26 1028.77
1019.64 1020.67 1021.90 1023.24 1024.24 1025.15 1025.89 1026.62 1027.31 1028.12 1028.66 1029.15 1029.63 1029.94 1030.23 1030.45 1030.66 1031.03 1031.20 1031.20 1031.43 1031.60 1031.90 1032.06 1032.16 1032.22 1032.24 1032.29 1032.35 1032.10 1031.85 1031.73 1031.50 1031.14 1030.79 1030.65 1030.49 1030.39 1030.37 1030.23 1030.11 1029.77 1028.86
1020.77 1021.58 1022.68 1023.71 1024.63 1025.57 1026.33 1027.10 1027.84 1028.47 1029.04 1029.49 1029.84 1030.23 1030.61 1030.90 1031.09 1031.24 1031.23 1031.37 1031.49 1031.68 1031.86 1032.00 1032.06 1032.14 1032.18 1032.21 1032.15 1031.94 1031.61 1031.53 1031.35 1030.91 1030.67 1030.44 1030.22 1030.02 1029.96 1029.87 1029.66 1029.51 1029.14
1022.01 1022.75 1023.64 1024.56 1025.41 1026.24 1026.91 1027.50 1028.09 1028.67 1029.28 1029.65 1030.01 1030.38 1030.70 1031.02 1031.17 1031.23 1031.21 1031.27 1031.51 1031.68 1031.88 1031.95 1032.02 1032.10 1032.14 1032.07 1031.98 1031.75 1031.46 1031.38 1031.04 1030.83 1030.41 1030.24 1030.09 1029.71 1029.82 1029.59 1029.21 1029.01 1028.77
1023.19 1023.91 1024.80 1025.72 1026.61 1027.21 1027.74 1028.20 1028.56 1028.94 1029.34 1029.80 1030.17 1030.39 1030.57 1030.75 1030.92 1030.98 1031.08 1031.23 1031.43 1031.54 1031.76 1031.84 1031.89 1031.99 1031.86 1031.71 1031.56 1031.39 1031.21 1031.00 1030.68 1030.51 1030.33 1029.90 1029.77 1029.34 1029.46 1029.20 1028.81 1028.36 1028.45
1024.35 1025.15 1025.93 1026.71 1027.43 1028.03 1028.41 1028.68 1029.05 1029.38 1029.68 1029.99 1030.29 1030.44 1030.56 1030.61 1030.70 1030.68 1030.87 1031.13 1031.33 1031.42 1031.44 1031.50 1031.54 1031.53 1031.46 1031.31 1031.22 1030.94 1030.81 1030.60 1030.33 1030.06 1029.97 1029.53 1029.41 1029.11 1028.99 1028.72 1028.18 1027.97 1027.87
1025.04 1025.77 1026.48 1027.20 1027.83 1028.42 1028.91 1029.25 1029.51 1029.75 1030.13 1030.36 1030.48 1030.53 1030.61 1030.65 1030.56 1030.49 1030.56 1030.78 1030.96 1031.03 1031.03 1031.01 1031.02 1031.02 1030.92 1030.78 1030.68 1030.58 1030.39 1030.13 1029.83 1029.59 1029.32 1029.02 1028.84 1028.66 1028.49 1028.17 1027.86 1027.61 1027.28
1025.56 1026.14 1026.76 1027.37 1027.99 1028.49 1028.95 1029.33 1029.60 1029.86 1030.15 1030.47 1030.54 1030.47 1030.50 1030.46 1030.48 1030.36 1030.36 1030.42 1030.41 1030.42 1030.46 1030.52 1030.47 1030.38 1030.30 1030.19 1030.12 1030.01 1029.72 1029.41 1029.09 1028.80 1028.48 1028.16 1027.95 1027.70 1027.48 1027.29 1027.21 1027.12 1026.85
1025.83 1026.47 1026.99 1027.58 1028.06 1028.54 1028.95 1029.26 1029.48 1029.82 1030.23 1030.27 1030.30 1030.38 1030.36 1030.32 1030.24 1030.12 1030.00 1029.94 1029.89 1029.77 1029.77 1029.79 1029.73 1029.67 1029.62 1029.49 1029.37 1029.24 1029.07 1028.83 1028.49 1028.14 1027.82 1027.48 1027.09 1026.74 1026.36 1025.98 1025.84 1025.84 1025.69
1026.81 1027.31 1027.77 1028.13 1028.39 1028.64 1028.93 1029.05 1029.24 1029.56 1029.85 1029.95 1030.03 1030.07 1030.13 1030.10 1030.06 1029.90 1029.70 1029.49 1029.31 1029.18 1029.09 1029.02 1028.96 1028.84 1028.82 1028.73 1028.55 1028.40 1028.19 1027.99 1027.73 1027.48 1027.12 1026.64 1026.17 1025.90 1025.62 1025.37 1024.86 1024.51 1024.44
1027.69 1027.98 1028.27 1028.43 1028.56 1028.76 1028.88 1028.92 1029.05 1029.25 1029.41 1029.49 1029.58 1029.60 1029.67 1029.71 1029.66 1029.53 1029.29 1029.06 1028.87 1028.67 1028.52 1028.31 1028.17 1028.03 1027.88 1027.77 1027.63 1027.52 1027.32 1027.11 1026.90 1026.69 1026.39 1025.96 1025.55 1025.26 1024.99 1024.64 1024.28 1023.96 1023.78
1028.06 1028.12 1028.13 1028.12 1028.21 1028.40 1028.44 1028.59 1028.68 1028.76 1028.81 1028.79 1028.70 1028.80 1028.90 1028.96 1029.00 1028.84 1028.65 1028.53 1028.34 1028.14 1027.92 1027.65 1027.38 1027.18 1027.02 1027.01 1026.77 1026.69 1026.52 1026.22 1025.95 1025.72 1025.46 1025.14 1024.70 1024.38 1023.98 1023.59 1023.33 1023.12 1022.84
1027.76 1027.72 1027.63 1027.58 1027.71 1027.71 1027.85 1027.96 1027.86 1027.85 1027.73 1027.51 1027.47 1027.63 1027.85 1028.00 1028.07 1028.04 1028.04 1027.97 1027.82 1027.51 1027.37 1026.94 1026.68 1026.43 1026.17 1026.17 1025.87 1025.73 1025.60 1025.29 1025.17 1025.01 1024.81 1024.47 1023.81 1023.41 1022.95 1022.62 1022.49 1022.17 1021.76
1026.64 1026.87 1026.73 1026.71 1026.81 1027.15 1027.38 1027.04 1026.83 1026.60 1026.39 1026.45 1026.54 1026.76 1026.96 1027.06 1027.09 1027.18 1027.26 1027.24 1027.15 1026.89 1026.63 1026.39 1026.15 1025.81 1025.60 1025.46 1025.18 1024.98 1024.76 1024.56 1024.34 1024.07 1023.73 1023.31 1022.85 1022.15 1021.64 1021.31 1021.16 1020.98 1020.82
1025.82 1025.78 1025.46 1025.29 1025.36 1025.53 1026.02 1025.86 1025.75 1025.70 1025.73 1025.77 1025.82 1025.91 1026.00 1026.09 1026.12 1026.20 1026.30 1026.34 1026.36 1026.21 1026.05 1025.92 1025.56 1025.25 1025.09 1024.83 1024.49 1024.14 1023.78 1023.51 1023.20 1023.04 1022.73 1022.32 1021.92 1021.31 1020.78 1020.35 1020.05 1019.61 1019.24
1025.31 1025.00 1024.66 1024.33 1024.28 1024.30 1024.39 1024.17 1024.14 1024.58 1024.76 1024.84 1024.87 1024.97 1025.06 1025.15 1025.24 1025.30 1025.29 1025.34 1025.40 1025.31 1025.09 1024.93 1024.60 1024.33 1024.19 1023.84 1023.51 1022.99 1022.55 1022.22 1021.89 1021.75 1021.46 1020.98 1020.44 1020.01 1019.56 1019.29 1018.95 1018.64 1018.48
1024.86 1024.54 1024.12 1023.66 1023.32 1023.32 1023.17 1022.92 1022.97 1023.21 1023.46 1023.67 1023.81 1023.91 1024.11 1024.23 1024.27 1024.26 1024.22 1024.20 1024.18 1024.05 1023.90 1023.76 1023.54 1023.36 1023.21 1022.95 1022.65 1022.27 1022.01 1021.71 1021.25 1020.78 1020.27 1019.83 1019.37 1018.94 1018.48 1018.10 1017.99 1017.93 1017.62
1024.51 1024.17 1023.60 1023.09 1022.69 1022.57 1022.30 1022.15 1022.13 1022.20 1022.31 1022.55 1022.76 1022.90 1022.95 1023.00 1022.89 1022.80 1022.77 1022.81 1022.86 1022.87 1022.79 1022.59 1022.51 1022.44 1022.15 1021.84 1021.49 1021.34 1021.19 1020.88 1020.43 1019.94 1019.54 1019.15 1018.77 1018.40 1018.07 1017.64 1017.53 1017.35 1017.16
1024.21 1023.68 1023.17 1022.65 1022.18 1021.96 1021.76 1021.67 1021.65 1021.69 1021.80 1021.80 1021.88 1021.87 1021.77 1021.73 1021.71 1021.65 1021.53 1021.42 1021.03 1020.87 1020.74 1020.66 1020.69 1020.87 1020.30 1020.15 1020.02 1019.67 1019.21 1018.85 1018.59 1018.36 1018.08 1017.70 1017.48 1017.00 1017.09 1017.21 1017.01 1016.89 1016.80
Wind_Speed
17 16 15 13 12 11 11 11 11 11 8 7 7 7 6 7 7 7 9 9 8 9 8 6 7 7 7 8 8 7 8 7 9 5 5 2 3 4 6 6 7 9 9
19 17 16 15 13 12 12 11 10 9 5 4 5 6 6 7 7 6 7 8 8 8 8 7 7 8 6 8 8 9 7 5 7 6 5 4 1 4 5 4 6 8 7
21 19 17 16 14 14 12 10 9 8 7 7 6 6 7 6 6 6 6 6 7 8 8 8 6 6 6 5 7 7 8 6 5 6 4 4 4 8 3 5 5 7 7
18 16 16 15 13 12 11 10 10 9 8 9 8 10 6 7 5 5 5 5 5 6 6 6 5 5 4 5 5 5 5 5 5 2 3 1 3 3 5 4 8 7 8
19 19 18 16 16 14 12 11 11 9 8 7 7 6 6 7 5 5 6 5 5 5 5 4 3 4 3 3 4 4 4 3 4 4 4 4 3 6 6 9 7 7 7
18 18 17 16 15 13 12 12 12 10 9 8 7 7 8 7 6 5 5 3 3 3 3 3 2 2 3 3 4 4 5 5 5 5 4 4 3 5 6 8 9 10 8
17 18 18 17 16 16 14 13 12 11 10 9 8 7 7 6 6 4 3 2 2 2 2 2 2 3 3 4 5 5 6 6 5 6 5 5 5 6 7 8 8 9 7
14 16 17 16 15 15 14 13 12 11 10 9 8 6 5 4 3 3 2 2 1 1 2 3 4 4 5 5 6 5 6 7 7 8 7 6 6 6 7 8 8 9 9
12 13 14 13 14 14 13 12 11 10 9 8 7 6 5 4 4 3 2 1 0 1 3 4 5 6 6 7 7 6 7 8 8 9 8 7 6 6 6 7 7 8 9
9 10 10 11 11 11 10 10 10 10 9 7 5 4 4 3 2 2 3 2 2 3 4 5 6 7 7 8 8 8 8 9 8 7 9 9 7 7 7 7 7 8 9
10 9 8 7 8 9 9 9 9 9 8 7 6 5 4 4 3 4 3 3 4 4 6 6 7 8 9 9 9 10 10 11 11 11 11 11 11 7 8 8 8 8 9
8 8 9 8 7 7 8 8 8 8 7 6 5 4 4 4 5 5 5 5 6 6 7 7 8 9 9 9 10 11 11 11 11 11 12 11 10 11 10 8 11 10 10
9 9 9 9 8 7 5 7 7 6 5 5 5 5 5 6 7 6 6 6 7 7 8 9 10 10 10 10 11 11 11 12 12 12 12 12 11 11 10 11 10 9 9
7 7 7 7 7 6 5 5 5 6 5 5 5 6 7 7 7 7 7 7 8 9 10 10 10 11 11 11 11 12 12 13 12 12 12 12 12 12 12 11 12 11 11
6 5 5 5 5 6 6 6 6 6 6 6 7 8 8 8 8 9 9 10 10 10 11 11 11 11 11 9 11 12 12 13 13 13 13 13 15 21 19 11 11 12 11
5 4 3 3 3 4 5 6 7 7 6 7 8 8 8 9 10 10 11 11 12 12 12 12 12 13 10 17 18 16 12 14 14 13 14 14 20 19 25 27 28 22 14
4 3 2 3 4 4 4 7 7 6 7 8 8 8 8 9 9 11 12 13 13 13 13 13 13 13 13 20 20 21 13 13 13 14 14 13 12 19 14 20 26 23 25
4 4 4 5 6 5 6 6 6 7 8 8 8 8 8 8 9 10 13 13 12 13 12 13 13 13 12 21 22 22 14 13 14 15 15 16 16 16 17 15 16 16 15
6 7 7 8 8 8 8 7 8 9 9 10 12 10 8 9 10 11 11 12 12 12 12 14 14 14 13 22 23 20 14 14 15 14 15 15 16 21 27 18 16 15 15
10 10 11 10 9 11 10 10 11 11 12 14 13 11 9 10 11 11 10 10 12 13 13 15 14 18 15 21 24 21 11 13 11 14 16 26 23 28 29 19 16 16 17
11 12 12 12 13 10 9 12 12 13 14 12 11 10 10 11 11 10 10 10 11 13 12 13 13 14 15 15 24 24 14 11 11 12 12 12 26 28 28 28 16 16 15
17 16 15 13 12 10 10 12 14 12 11 10 10 10 10 9 8 11 9 10 10 11 11 11 11 10 13 21 22 26 27 23 15 14 13 14 28 29 30 25 26 30 27
15 14 14 14 13 12 12 15 14 11 11 10 10 10 10 9 9 10 10 9 10 10 10 10 10 10 11 11 22 25 26 26 19 12 18 29 31 32 27 30 29 28 12
16 15 16 16 15 13 13 14 12 10 11 11 11 9 10 10 11 9 9 9 9 9 10 10 10 9 9 10 9 11 10 18 16 18 16 19 24 28 23 21 15 9 9
15 15 15 15 16 15 14 12 12 11 11 10 10 10 10 10 10 10 9 9 10 11 9 10 9 9 10 10 17 15 10 10 14 15 11 11 11 12 11 10 10 8 7
15 14 16 16 16 14 13 12 11 11 10 11 10 9 9 9 9 9 9 19 22 25 27 27 20 13 25 27 26 26 27 28 28 15 12 11 12 12 9 7 7 7 10
Wind_Direction
178 169 168 163 164 162 156 154 147 143 144 143 136 130 114 107 93 80 76 69 64 57 55 56 48 42 44 35 26 14 11 25 355 341 343 0 118 68 12 21 17 24 13
177 173 172 169 169 165 166 160 157 157 146 135 106 112 108 94 96 94 79 72 67 56 61 52 47 38 33 33 28 20 360 22 25 352 304 354 183 46 335 29 12 21 2
178 177 175 174 170 168 165 163 156 151 148 128 133 121 120 135 131 121 98 72 70 63 55 48 44 38 31 28 22 14 13 350 32 32 353 340 357 346 80 342 8 360 356
176 175 175 177 169 161 148 148 152 150 154 164 155 160 157 138 107 113 108 101 79 73 59 54 41 37 23 22 8 9 353 347 347 334 37 359 315 328 315 349 328 356 338
177 179 180 177 174 160 160 157 149 142 143 149 151 149 128 126 134 131 132 117 109 80 69 49 43 38 14 11 352 337 337 324 314 321 325 318 287 259 264 295 315 318 331
178 180 180 175 171 163 160 157 153 146 142 140 144 144 144 145 147 146 144 130 130 130 108 28 34 2 352 339 322 311 298 303 295 288 285 278 291 306 302 297 299 303 307
177 178 179 177 167 171 167 164 161 154 149 142 137 136 136 143 136 146 135 150 141 129 87 340 357 337 330 311 302 295 289 283 281 285 285 281 269 276 279 283 285 289 298
177 179 179 176 173 174 172 168 165 155 156 150 143 138 140 136 129 132 138 145 157 82 14 329 320 308 308 304 298 293 288 283 275 276 275 276 272 269 266 273 289 289 287
175 174 167 174 174 177 174 172 162 159 159 152 154 149 144 147 145 157 181 185 240 13 308 315 307 304 302 299 294 287 286 285 280 276 277 274 272 269 267 264 265 276 286
160 158 163 173 167 169 169 163 167 165 159 157 159 154 150 159 177 217 232 263 289 293 302 297 296 295 297 291 287 283 281 280 283 285 285 281 276 275 271 267 263 262 270
168 158 146 143 152 160 165 165 167 161 165 170 163 177 184 204 233 256 268 279 287 287 284 288 288 285 282 281 280 279 280 278 279 279 277 277 280 275 273 271 265 263 264
157 155 149 138 143 156 167 169 169 175 179 179 192 210 222 231 248 256 266 274 276 277 274 273 273 274 273 273 274 275 277 276 277 278 278 276 275 273 268 267 264 263 267
153 159 161 163 165 169 171 176 178 189 187 193 217 237 248 252 258 262 266 269 270 269 269 265 265 268 270 272 271 274 275 276 275 275 274 274 274 273 270 268 269 268 269
161 162 167 166 169 174 177 188 203 198 201 215 230 246 257 264 267 269 268 264 262 265 266 267 267 267 270 270 272 272 272 273 274 274 272 272 270 270 272 270 270 269 267
145 152 162 160 170 179 192 200 211 214 216 216 236 248 256 260 262 261 261 261 262 262 264 266 266 267 267 265 265 267 271 275 277 275 272 267 263 263 258 254 255 262 264
129 119 123 145 181 206 216 224 225 218 213 230 233 245 254 260 262 264 265 265 264 265 265 264 265 267 265 268 267 269 268 273 277 279 275 272 275 275 274 270 267 259 253
69 46 323 282 280 274 255 244 239 223 217 220 230 235 241 251 256 263 266 265 267 269 268 266 266 265 265 268 268 269 268 268 269 273 276 277 274 276 275 275 276 276 274
321 305 292 279 271 258 247 251 245 228 225 229 232 231 228 237 248 253 258 263 265 266 267 264 262 263 264 266 269 271 271 271 270 269 270 270 270 268 270 267 269 269 268
270 261 253 248 252 237 246 237 234 235 233 234 238 235 223 230 242 245 247 253 259 261 264 263 260 259 262 267 268 271 271 270 269 270 271 272 273 273 273 271 270 272 271
278 270 268 270 257 252 249 247 248 245 242 242 244 243 240 237 238 241 244 246 250 255 259 261 260 259 262 263 266 266 265 268 271 272 273 272 270 268 266 264 262 262 261
274 253 259 255 251 255 247 247 247 242 244 247 247 243 237 237 239 239 238 243 244 253 256 260 261 262 261 264 266 266 267 267 269 266 267 265 270 271 271 269 260 257 261
300 295 289 283 276 250 232 250 254 255 254 247 242 239 235 234 239 234 234 237 242 247 246 249 254 253 256 262 263 265 264 263 261 262 262 265 270 272 271 271 271 269 271
298 296 292 290 283 268 255 262 261 251 250 248 242 239 237 236 235 239 241 241 233 239 242 242 245 247 247 249 258 262 264 265 266 263 263 266 266 266 268 275 276 276 271
297 297 294 290 286 280 274 269 266 256 246 249 252 247 241 241 237 237 237 236 237 239 238 238 242 247 247 250 252 257 263 271 272 271 272 270 268 264 262 266 271 271 269
302 298 293 291 289 289 285 283 280 272 263 257 254 245 247 248 256 247 240 231 235 235 241 245 244 244 245 244 250 248 243 247 250 258 254 253 255 257 263 271 273 272 276
293 295 293 288 285 284 283 281 276 271 269 262 256 250 244 240 242 245 247 255 260 249 248 249 235 230 241 243 251 256 260 264 264 260 261 257 259 248 238 250 273 281 285